Terminal Aerodrome Forecast
Issued by NWS

Home | Current Version | Previous Version | Text Only | Print | Product List | Glossary On
Versions: 1 2 3 4 5 6 7 8 9 10 11 12 13 14 15 16 17 18 19 20 21 22 23 24 25 26 27 28 29 30
000
FTUS41 KOKX 231443 AAB
TAFGON
TAF AMD
KGON 231443Z 2315/2412 29012G21KT P6SM -RA BKN025
      TEMPO 2315/2316 4SM SHRA
     FM231630 31016G25KT P6SM BKN050
     FM231900 32020G30KT P6SM BKN050
     FM240100 32014G22KT P6SM SKC=

USA.gov is the U.S. government's official web portal to all federal, state and local government web resources and services.